Showing default

SPACEMOBILE-005, 61046

Orbit data source: Space-Track

SPACEMOBILE-005, 61046 is a payload satellite owned by AST & Science (US) in LEO that was launched on Thu, 12 Sep 2024 UTC via an FALCON 9 launch vehicle from the Air Force Eastern Test Range (AFETR). Payload-class satellites include a variety of spacecraft equipped with specific instruments for various scientific and technological missions. These include communications satellites like Starlink; space stations such as the ISS; scientific satellites like the Hubble; Earth observation satellites from companies like Planet Labs, Umbra, and HawkEye 360; GPS; miniature CubeSats for education and research; and military/defense satellites.

Loading next visibility...
Identifier
61046, 2024-163B
Orbit
LEO
Last TLE update
21 hours ago
Origin
Manufacturer
AST & Science
Mission
Operational Commercial Communications
Bus & Motor
BW3, Unknown motor
Mass
1,500 kg wet, 1,500 kg dry
Launch date (UTC)
2024-09-12 (10 months ago)
Launch vehicle
FALCON 9
Launch site
Air Force Eastern Test Range (AFETR)
Object type
Payload
Rocket body
Debris
Shape & HBR
Box + 1 Plate, 9 m
Radar Cross Section
1.500 m², Large (>1 m²)

Expand to show TLE details & history

TLE from 21 hours ago
0 SPACEMOBILE-005
1 61046U 24163B   25181.55963657  .00001181  00000-0  68452-4 0  9996
2 61046  52.9737 126.4232 0011609 136.3453 223.8461 15.20344713 44255
Epoch: 2025-06-30T13:25Z
TLE epoch observation values (Epoch: 2025-06-30T13:25:52.599Z)
Latitude
-0.00006°
Longitude
6.0863°
Altitude
511.443 km
Speed
7.606 km/s
True Right ascension
08h 25m 41s
True Declination
0° 00' 00"
Sunlit
Object was in daylight at epoch
Visualization orbit readout
Latitude
36.86824°
Longitude
36.35011°
Altitude
507.775 km
Speed
7.615 km/s
Apparent Right ascension
10h 08m 20s
Apparent Declination
0° 13' 06"
Sunlit
Object is in daylight
Visualization observer readout
Local Sidereal Time
21:47:37
Azimuth
351.995° N
Elevation
-49.588°
Doppler factor
1
Orbital elements
Apogee altitude
513.076 km
Perigee altitude
497.095 km
Semi-major axis
6,883.222 km
Eccentricity
0.00116
Inclination
52.9737°
RAAN
126.4232°
Arg. of periapsis
136.3453°
True anomaly
Unknown
Mean anomaly
223.8461°
Eccentric anomaly
Unknown
Mean motion
3.80063 °/min
Orbital period
94.72 mins
BSTAR
0.000068452
Loading maneuver chart data...
Loading SW <> Apogee altitude chart data...
Loading historical data...
Loading historical data...
Loading historical data...
Loading historical data...
Loading historical data...
Loading historical data...
Loading historical data...

SPACEMOBILE-005 Visibility forecast

Observer location: undefined°, undefined°

Span
Click to sort rows by Start time (UTC) header in descending order
Start Az.
Max El. time (UTC)
Max El. Az.
Max El.
End time (UTC)
End Az.
7 mins2025-07-01 22:44:13.655Z223.234° SW2025-07-01 22:47:13.655Z182.46° SSW43.513°2025-07-01 22:51:13.655Z53.134° ENE
4 mins2025-07-02 00:25:13.655Z310.289° NW2025-07-02 00:26:13.655Z331.879° NNW19.91°2025-07-02 00:29:13.655Z26.137° NE
5 mins2025-07-02 05:23:13.655Z319.034° NNW2025-07-02 05:25:13.655Z44.741° NE43.358°2025-07-02 05:28:13.655Z121.434° SE
|